Time,TemperatureF,DewpointF,PressureIn,WindDirection,WindDirectionDegrees,WindSpeedMPH,WindSpeedGustMPH,Humidity,HourlyPrecipIn,Conditions,Clouds,dailyrainin,SoftwareType,DateUTC
2013-03-27 00:00:00,35.0,23.3,29.77,WNW,283,1.0,3.0,62,0.00,,---,0.00,VWS V14.00,2013-03-27 04:00:00,
2013-03-27 00:05:00,35.0,23.3,29.77,WNW,283,0.0,2.0,62,0.00,,---,0.00,VWS V14.00,2013-03-27 04:05:00,
2013-03-27 00:10:00,34.8,23.5,29.77,WNW,283,0.0,2.0,63,0.00,,---,0.00,VWS V14.00,2013-03-27 04:10:00,
2013-03-27 00:15:00,34.8,23.5,29.77,WNW,284,0.0,2.0,63,0.00,,---,0.00,VWS V14.00,2013-03-27 04:15:00,
2013-03-27 00:20:00,34.8,23.5,29.77,WNW,284,3.0,3.0,63,0.00,,---,0.00,VWS V14.00,2013-03-27 04:20:00,
2013-03-27 00:25:00,34.9,23.2,29.77,WNW,302,1.0,4.0,62,0.00,,---,0.00,VWS V14.00,2013-03-27 04:25:00,
2013-03-27 00:30:00,34.7,23.4,29.77,WNW,302,1.0,4.0,63,0.00,,---,0.00,VWS V14.00,2013-03-27 04:30:00,
2013-03-27 00:35:00,34.4,23.1,29.77,WNW,302,0.0,0.0,63,0.00,,---,0.00,VWS V14.00,2013-03-27 04:35:00,
2013-03-27 00:40:00,34.0,23.1,29.77,WNW,302,0.0,1.0,64,0.00,,---,0.00,VWS V14.00,2013-03-27 04:40:00,
2013-03-27 00:45:00,33.9,23.0,29.77,WNW,302,0.0,2.0,64,0.00,,---,0.00,VWS V14.00,2013-03-27 04:45:00,
2013-03-27 00:50:00,33.7,23.2,29.77,WNW,302,0.0,2.0,65,0.00,,---,0.00,VWS V14.00,2013-03-27 04:50:00,
2013-03-27 00:55:00,33.7,22.8,29.77,WNW,302,1.0,2.0,64,0.00,,---,0.00,VWS V14.00,2013-03-27 04:55:00,
2013-03-27 01:00:00,33.4,22.9,29.77,WNW,302,0.0,2.0,65,0.00,,---,0.00,VWS V14.00,2013-03-27 05:00:00,
2013-03-27 01:05:00,33.3,22.8,29.77,WNW,302,1.0,2.0,65,0.00,,---,0.00,VWS V14.00,2013-03-27 05:05:00,
2013-03-27 01:10:00,33.4,22.9,29.77,WNW,302,1.0,3.0,65,0.00,,---,0.00,VWS V14.00,2013-03-27 05:10:00,
2013-03-27 01:15:00,33.7,22.8,29.77,NW,307,2.0,4.0,64,0.00,,---,0.00,VWS V14.00,2013-03-27 05:15:00,
2013-03-27 01:20:00,33.9,23.0,29.77,NW,304,1.0,4.0,64,0.00,,---,0.00,VWS V14.00,2013-03-27 05:20:00,
2013-03-27 01:25:00,33.9,23.0,29.77,NW,304,0.0,4.0,64,0.00,,---,0.00,VWS V14.00,2013-03-27 05:25:00,
2013-03-27 01:30:00,33.8,22.9,29.77,WNW,301,1.0,4.0,64,0.00,,---,0.00,VWS V14.00,2013-03-27 05:30:00,
2013-03-27 01:35:00,33.8,22.5,29.77,WNW,301,0.0,2.0,63,0.00,,---,0.00,VWS V14.00,2013-03-27 05:35:00,
2013-03-27 01:40:00,33.8,22.5,29.77,WNW,301,2.0,3.0,63,0.00,,---,0.00,VWS V14.00,2013-03-27 05:40:00,
2013-03-27 01:45:00,33.7,22.5,29.77,NW,312,1.0,3.0,63,0.00,,---,0.00,VWS V14.00,2013-03-27 05:45:00,
2013-03-27 01:50:00,33.8,22.5,29.77,NW,312,1.0,3.0,63,0.00,,---,0.00,VWS V14.00,2013-03-27 05:50:00,
2013-03-27 01:55:00,33.7,22.5,29.77,West,271,0.0,3.0,63,0.00,,---,0.00,VWS V14.00,2013-03-27 05:55:00,
2013-03-27 02:00:00,33.7,22.5,29.77,West,279,0.0,3.0,63,0.00,,---,0.00,VWS V14.00,2013-03-27 06:00:00,
2013-03-27 02:05:00,33.7,22.5,29.77,WNW,286,1.0,3.0,63,0.00,,---,0.00,VWS V14.00,2013-03-27 06:05:00,
2013-03-27 02:10:00,33.6,22.4,29.77,NW,314,2.0,4.0,63,0.00,,---,0.00,VWS V14.00,2013-03-27 06:10:00,
2013-03-27 02:15:00,33.5,22.3,29.77,NW,314,2.0,4.0,63,0.00,,---,0.00,VWS V14.00,2013-03-27 06:15:00,
2013-03-27 02:20:00,33.5,22.3,29.77,WNW,303,2.0,4.0,63,0.00,,---,0.00,VWS V14.00,2013-03-27 06:20:00,
2013-03-27 02:25:00,33.4,22.2,29.77,WNW,303,2.0,4.0,63,0.00,,---,0.00,VWS V14.00,2013-03-27 06:25:00,
2013-03-27 02:30:00,33.4,22.2,29.77,NW,309,2.0,4.0,63,0.00,,---,0.00,VWS V14.00,2013-03-27 06:30:00,
2013-03-27 02:35:00,33.5,22.3,29.77,WNW,302,1.0,3.0,63,0.00,,---,0.00,VWS V14.00,2013-03-27 06:35:00,
2013-03-27 02:40:00,33.4,22.2,29.77,NW,311,1.0,4.0,63,0.00,,---,0.00,VWS V14.00,2013-03-27 06:40:00,
2013-03-27 02:45:00,33.4,22.2,29.77,WNW,296,2.0,4.0,63,0.00,,---,0.00,VWS V14.00,2013-03-27 06:45:00,
2013-03-27 02:50:00,33.5,22.3,29.77,WNW,293,1.0,5.0,63,0.00,,---,0.00,VWS V14.00,2013-03-27 06:50:00,
2013-03-27 02:55:00,33.4,22.2,29.77,WNW,299,4.0,5.0,63,0.00,,---,0.00,VWS V14.00,2013-03-27 06:55:00,
2013-03-27 03:00:00,33.4,22.2,29.77,NW,315,0.0,5.0,63,0.00,,---,0.00,VWS V14.00,2013-03-27 07:00:00,
2013-03-27 03:05:00,33.4,22.2,29.76,NW,321,1.0,5.0,63,0.00,,---,0.00,VWS V14.00,2013-03-27 07:05:00,
2013-03-27 03:10:00,33.3,22.5,29.76,NW,312,3.0,5.0,64,0.00,,---,0.00,VWS V14.00,2013-03-27 07:10:00,
2013-03-27 03:15:00,33.4,22.5,29.76,WNW,294,1.0,5.0,64,0.00,,---,0.00,VWS V14.00,2013-03-27 07:15:00,
2013-03-27 03:20:00,33.3,22.5,29.76,NW,318,1.0,6.0,64,0.00,,---,0.00,VWS V14.00,2013-03-27 07:20:00,
2013-03-27 03:25:00,33.3,22.5,29.76,NW,304,0.0,6.0,64,0.00,,---,0.00,VWS V14.00,2013-03-27 07:25:00,
2013-03-27 03:30:00,33.2,22.4,29.76,NW,304,2.0,6.0,64,0.00,,---,0.00,VWS V14.00,2013-03-27 07:30:00,
2013-03-27 03:35:00,33.1,22.3,29.76,NW,304,1.0,3.0,64,0.00,,---,0.00,VWS V14.00,2013-03-27 07:35:00,
2013-03-27 03:40:00,33.0,22.2,29.76,NW,304,0.0,3.0,64,0.00,,---,0.00,VWS V14.00,2013-03-27 07:40:00,
2013-03-27 03:45:00,32.8,22.0,29.76,NW,304,2.0,3.0,64,0.00,,---,0.00,VWS V14.00,2013-03-27 07:45:00,
2013-03-27 03:50:00,32.6,22.1,29.76,WNW,283,2.0,3.0,65,0.00,,---,0.00,VWS V14.00,2013-03-27 07:50:00,
2013-03-27 03:55:00,32.5,22.1,29.76,WNW,283,1.0,3.0,65,0.00,,---,0.00,VWS V14.00,2013-03-27 07:55:00,
2013-03-27 04:00:00,32.5,22.1,29.76,WNW,283,2.0,3.0,65,0.00,,---,0.00,VWS V14.00,2013-03-27 08:00:00,
2013-03-27 04:05:00,32.4,22.3,29.76,WNW,283,2.0,3.0,66,0.00,,---,0.00,VWS V14.00,2013-03-27 08:05:00,
2013-03-27 04:10:00,32.3,22.2,29.76,WNW,286,2.0,4.0,66,0.00,,---,0.00,VWS V14.00,2013-03-27 08:10:00,
2013-03-27 04:15:00,32.3,22.2,29.76,West,267,1.0,4.0,66,0.00,,---,0.00,VWS V14.00,2013-03-27 08:15:00,
2013-03-27 04:20:00,32.3,22.2,29.76,West,267,1.0,4.0,66,0.00,,---,0.00,VWS V14.00,2013-03-27 08:20:00,
2013-03-27 04:25:00,32.1,22.0,29.76,West,267,1.0,4.0,66,0.00,,---,0.00,VWS V14.00,2013-03-27 08:25:00,
2013-03-27 04:30:00,32.0,21.9,29.76,WNW,288,3.0,4.0,66,0.00,,---,0.00,VWS V14.00,2013-03-27 08:30:00,
2013-03-27 04:35:00,31.8,22.1,29.76,WNW,288,2.0,3.0,67,0.00,,---,0.00,VWS V14.00,2013-03-27 08:35:00,
2013-03-27 04:40:00,31.5,21.8,29.76,WNW,288,2.0,3.0,67,0.00,,---,0.00,VWS V14.00,2013-03-27 08:40:00,
2013-03-27 04:45:00,31.3,22.0,29.76,WNW,288,2.0,3.0,68,0.00,,---,0.00,VWS V14.00,2013-03-27 08:45:00,
2013-03-27 04:50:00,31.3,22.0,29.76,WNW,288,1.0,3.0,68,0.00,,---,0.00,VWS V14.00,2013-03-27 08:50:00,
2013-03-27 04:55:00,31.5,22.2,29.76,WNW,300,2.0,4.0,68,0.00,,---,0.00,VWS V14.00,2013-03-27 08:55:00,
2013-03-27 05:00:00,31.5,22.2,29.76,WNW,300,4.0,4.0,68,0.00,,---,0.00,VWS V14.00,2013-03-27 09:00:00,
2013-03-27 05:05:00,31.7,22.4,29.76,NW,315,2.0,5.0,68,0.00,,---,0.00,VWS V14.00,2013-03-27 09:05:00,
2013-03-27 05:10:00,31.9,22.5,29.76,WNW,301,2.0,5.0,68,0.00,,---,0.00,VWS V14.00,2013-03-27 09:10:00,
2013-03-27 05:15:00,31.9,22.5,29.76,NW,304,1.0,5.0,68,0.00,,---,0.00,VWS V14.00,2013-03-27 09:15:00,
2013-03-27 05:20:00,32.0,22.6,29.76,WNW,296,2.0,5.0,68,0.00,,---,0.00,VWS V14.00,2013-03-27 09:20:00,
2013-03-27 05:25:00,31.9,22.5,29.76,WNW,292,2.0,5.0,68,0.00,,---,0.00,VWS V14.00,2013-03-27 09:25:00,
2013-03-27 05:30:00,31.8,22.5,29.76,WNW,292,1.0,5.0,68,0.00,,---,0.00,VWS V14.00,2013-03-27 09:30:00,
2013-03-27 05:35:00,31.6,22.3,29.77,NW,306,1.0,3.0,68,0.00,,---,0.00,VWS V14.00,2013-03-27 09:35:00,
2013-03-27 05:40:00,31.5,22.5,29.77,WNW,293,2.0,5.0,69,0.00,,---,0.00,VWS V14.00,2013-03-27 09:40:00,
2013-03-27 05:45:00,31.5,22.5,29.77,WNW,297,3.0,5.0,69,0.00,,---,0.00,VWS V14.00,2013-03-27 09:45:00,
2013-03-27 05:50:00,31.6,22.6,29.77,West,274,2.0,5.0,69,0.00,,---,0.00,VWS V14.00,2013-03-27 09:50:00,
2013-03-27 05:55:00,31.6,22.6,29.77,WNW,290,2.0,5.0,69,0.00,,---,0.00,VWS V14.00,2013-03-27 09:55:00,
2013-03-27 06:00:00,31.6,22.6,29.77,West,281,2.0,5.0,69,0.00,,---,0.00,VWS V14.00,2013-03-27 10:00:00,
2013-03-27 06:05:00,31.6,22.6,29.77,West,281,2.0,3.0,69,0.00,,---,0.00,VWS V14.00,2013-03-27 10:05:00,
2013-03-27 06:10:00,31.6,22.6,29.77,West,281,2.0,3.0,69,0.00,,---,0.00,VWS V14.00,2013-03-27 10:10:00,
2013-03-27 06:15:00,31.6,22.6,29.77,West,278,2.0,4.0,69,0.00,,---,0.00,VWS V14.00,2013-03-27 10:15:00,
2013-03-27 06:20:00,31.7,22.7,29.77,West,281,0.0,4.0,69,0.00,,---,0.00,VWS V14.00,2013-03-27 10:20:00,
2013-03-27 06:25:00,31.6,22.6,29.77,West,281,1.0,4.0,69,0.00,,---,0.00,VWS V14.00,2013-03-27 10:25:00,
2013-03-27 06:30:00,31.6,22.6,29.77,West,281,3.0,4.0,69,0.00,,---,0.00,VWS V14.00,2013-03-27 10:30:00,
2013-03-27 06:35:00,31.5,22.9,29.77,West,277,1.0,4.0,70,0.00,,---,0.00,VWS V14.00,2013-03-27 10:35:00,
2013-03-27 06:40:00,31.3,22.7,29.77,West,277,1.0,4.0,70,0.00,,---,0.00,VWS V14.00,2013-03-27 10:40:00,
2013-03-27 06:45:00,31.3,22.7,29.78,West,277,2.0,4.0,70,0.00,,---,0.00,VWS V14.00,2013-03-27 10:45:00,
2013-03-27 06:50:00,31.2,22.6,29.78,West,278,2.0,4.0,70,0.00,,---,0.00,VWS V14.00,2013-03-27 10:50:00,
2013-03-27 06:55:00,31.3,22.7,29.78,WNW,287,2.0,4.0,70,0.00,,---,0.00,VWS V14.00,2013-03-27 10:55:00,
2013-03-27 07:00:00,31.4,22.8,29.78,WNW,288,2.0,4.0,70,0.00,,---,0.00,VWS V14.00,2013-03-27 11:00:00,
2013-03-27 07:05:00,31.5,23.2,29.78,WNW,288,0.0,3.0,71,0.00,,---,0.00,VWS V14.00,2013-03-27 11:05:00,
2013-03-27 07:10:00,31.6,23.0,29.78,WNW,288,0.0,3.0,70,0.00,,---,0.00,VWS V14.00,2013-03-27 11:10:00,
2013-03-27 07:15:00,31.6,23.3,29.78,WNW,288,1.0,3.0,71,0.00,,---,0.00,VWS V14.00,2013-03-27 11:15:00,
2013-03-27 07:20:00,31.9,23.2,29.78,WNW,288,0.0,3.0,70,0.00,,---,0.00,VWS V14.00,2013-03-27 11:20:00,
2013-03-27 07:25:00,32.1,23.4,29.79,WNW,288,1.0,3.0,70,0.00,,---,0.00,VWS V14.00,2013-03-27 11:25:00,
2013-03-27 07:30:00,32.3,23.6,29.78,WNW,287,2.0,4.0,70,0.00,,---,0.00,VWS V14.00,2013-03-27 11:30:00,
2013-03-27 07:35:00,32.8,23.8,29.79,WNW,287,1.0,3.0,69,0.00,,---,0.00,VWS V14.00,2013-03-27 11:35:00,
2013-03-27 07:40:00,33.0,24.0,29.79,West,263,1.0,4.0,69,0.00,,---,0.00,VWS V14.00,2013-03-27 11:40:00,
2013-03-27 07:45:00,33.4,24.3,29.79,West,263,1.0,4.0,69,0.00,,---,0.00,VWS V14.00,2013-03-27 11:45:00,
2013-03-27 07:50:00,34.0,24.6,29.79,NNW,327,2.0,6.0,68,0.00,,---,0.00,VWS V14.00,2013-03-27 11:50:00,
2013-03-27 07:55:00,34.6,24.8,29.79,WNW,296,2.0,6.0,67,0.00,,---,0.00,VWS V14.00,2013-03-27 11:55:00,
2013-03-27 08:00:00,35.2,25.0,29.79,WNW,297,3.0,6.0,66,0.00,,---,0.00,VWS V14.00,2013-03-27 12:00:00,
2013-03-27 08:05:00,35.7,25.1,29.79,WNW,291,5.0,5.0,65,0.00,,---,0.00,VWS V14.00,2013-03-27 12:05:00,
2013-03-27 08:10:00,36.3,25.3,29.79,WNW,291,3.0,6.0,64,0.00,,---,0.00,VWS V14.00,2013-03-27 12:10:00,
2013-03-27 08:15:00,36.9,25.5,29.79,NW,322,4.0,13.0,63,0.00,,---,0.00,VWS V14.00,2013-03-27 12:15:00,
2013-03-27 08:20:00,37.4,26.0,29.79,WNW,289,6.0,13.0,63,0.00,,---,0.00,VWS V14.00,2013-03-27 12:20:00,
2013-03-27 08:25:00,37.7,25.5,29.80,WSW,257,5.0,13.0,61,0.00,,---,0.00,VWS V14.00,2013-03-27 12:25:00,
2013-03-27 08:30:00,38.2,26.3,29.79,West,271,5.0,13.0,62,0.00,,---,0.00,VWS V14.00,2013-03-27 12:30:00,
2013-03-27 08:35:00,38.7,26.4,29.79,WNW,292,4.0,9.0,61,0.00,,---,0.00,VWS V14.00,2013-03-27 12:35:00,
2013-03-27 08:40:00,39.0,25.9,29.80,WNW,292,6.0,10.0,59,0.00,,---,0.00,VWS V14.00,2013-03-27 12:40:00,
2013-03-27 08:44:00,39.5,26.4,29.79,NW,323,3.0,10.0,59,0.00,,---,0.00,VWS V14.00,2013-03-27 12:44:00,
2013-03-27 08:49:00,40.0,26.8,29.79,SW,230,5.0,12.0,59,0.00,,---,0.00,VWS V14.00,2013-03-27 12:49:00,
2013-03-27 08:54:00,40.5,27.3,29.79,WSW,251,5.0,12.0,59,0.00,,---,0.00,VWS V14.00,2013-03-27 12:54:00,
2013-03-27 08:59:00,41.0,27.4,29.79,West,273,5.0,12.0,58,0.00,,---,0.00,VWS V14.00,2013-03-27 12:59:00,
2013-03-27 09:04:00,41.3,27.2,29.79,WNW,284,7.0,10.0,57,0.00,,---,0.00,VWS V14.00,2013-03-27 13:04:00,
2013-03-27 09:09:00,41.7,27.2,29.79,NNW,329,6.0,10.0,56,0.00,,---,0.00,VWS V14.00,2013-03-27 13:09:00,
2013-03-27 09:14:00,42.0,27.0,29.79,North,351,3.0,10.0,55,0.00,,---,0.00,VWS V14.00,2013-03-27 13:14:00,
2013-03-27 09:19:00,42.5,27.5,29.79,NW,306,4.0,10.0,55,0.00,,---,0.00,VWS V14.00,2013-03-27 13:19:00,
2013-03-27 09:24:00,42.9,27.4,29.79,WNW,290,5.0,11.0,54,0.00,,---,0.00,VWS V14.00,2013-03-27 13:24:00,
2013-03-27 09:30:00,43.5,28.0,29.79,NW,310,5.0,11.0,54,0.00,,---,0.00,VWS V14.00,2013-03-27 13:30:00,
2013-03-27 09:35:00,44.0,28.0,29.79,NNW,331,2.0,9.0,53,0.00,,---,0.00,VWS V14.00,2013-03-27 13:35:00,
2013-03-27 09:40:00,44.5,28.5,29.79,WNW,294,5.0,9.0,53,0.00,,---,0.00,VWS V14.00,2013-03-27 13:40:00,
2013-03-27 09:45:00,45.0,28.5,29.79,West,265,6.0,9.0,52,0.00,,---,0.00,VWS V14.00,2013-03-27 13:45:00,
2013-03-27 09:49:00,45.4,28.8,29.79,WNW,288,5.0,11.0,52,0.00,,---,0.00,VWS V14.00,2013-03-27 13:49:00,
2013-03-27 09:54:00,45.4,28.4,29.79,WNW,290,5.0,11.0,51,0.00,,---,0.00,VWS V14.00,2013-03-27 13:54:00,
2013-03-27 09:59:00,45.9,28.8,29.79,West,279,4.0,11.0,51,0.00,,---,0.00,VWS V14.00,2013-03-27 13:59:00,
2013-03-27 10:05:00,46.2,28.1,29.79,NW,315,9.0,12.0,49,0.00,,---,0.00,VWS V14.00,2013-03-27 14:05:00,
2013-03-27 10:10:00,46.2,28.6,29.79,WNW,298,5.0,12.0,50,0.00,,---,0.00,VWS V14.00,2013-03-27 14:10:00,
2013-03-27 10:14:00,46.3,28.7,29.78,NW,324,3.0,12.0,50,0.00,,---,0.00,VWS V14.00,2013-03-27 14:14:00,
2013-03-27 10:19:00,47.1,28.4,29.79,WNW,286,8.0,12.0,48,0.00,,---,0.00,VWS V14.00,2013-03-27 14:19:00,
2013-03-27 10:24:00,46.9,28.8,29.78,NW,313,8.0,12.0,49,0.00,,---,0.00,VWS V14.00,2013-03-27 14:24:00,
2013-03-27 10:29:00,47.1,28.4,29.78,NNW,336,3.0,12.0,48,0.00,,---,0.00,VWS V14.00,2013-03-27 14:29:00,
2013-03-27 10:34:00,47.5,28.3,29.78,NW,304,9.0,9.0,47,0.00,,---,0.00,VWS V14.00,2013-03-27 14:34:00,
2013-03-27 10:39:00,47.9,28.1,29.78,NNW,330,9.0,13.0,46,0.00,,---,0.00,VWS V14.00,2013-03-27 14:39:00,
2013-03-27 10:44:00,47.8,28.0,29.77,WNW,302,11.0,14.0,46,0.00,,---,0.00,VWS V14.00,2013-03-27 14:44:00,
2013-03-27 10:49:00,48.1,28.3,29.77,WNW,285,6.0,16.0,46,0.00,,---,0.00,VWS V14.00,2013-03-27 14:49:00,
2013-03-27 10:54:00,48.8,28.4,29.78,West,270,5.0,16.0,45,0.00,,---,0.00,VWS V14.00,2013-03-27 14:54:00,
2013-03-27 10:59:00,48.9,28.5,29.78,WNW,300,13.0,16.0,45,0.00,,---,0.00,VWS V14.00,2013-03-27 14:59:00,
2013-03-27 11:04:00,48.6,28.2,29.77,NW,316,11.0,13.0,45,0.00,,---,0.00,VWS V14.00,2013-03-27 15:04:00,
2013-03-27 11:09:00,49.0,28.6,29.77,West,269,6.0,15.0,45,0.00,,---,0.00,VWS V14.00,2013-03-27 15:09:00,
2013-03-27 11:14:00,49.5,29.6,29.77,NW,315,5.0,15.0,46,0.00,,---,0.00,VWS V14.00,2013-03-27 15:14:00,
2013-03-27 11:19:00,49.8,29.3,29.77,WNW,298,8.0,15.0,45,0.00,,---,0.00,VWS V14.00,2013-03-27 15:19:00,
2013-03-27 11:24:00,49.5,29.6,29.77,WSW,257,7.0,15.0,46,0.00,,---,0.00,VWS V14.00,2013-03-27 15:24:00,
2013-03-27 11:29:00,49.5,29.6,29.77,SW,219,5.0,15.0,46,0.00,,---,0.00,VWS V14.00,2013-03-27 15:29:00,
2013-03-27 11:34:00,49.5,29.1,29.76,West,271,9.0,13.0,45,0.00,,---,0.00,VWS V14.00,2013-03-27 15:34:00,
2013-03-27 11:39:00,49.6,28.6,29.76,WNW,300,8.0,13.0,44,0.00,,---,0.00,VWS V14.00,2013-03-27 15:39:00,
2013-03-27 11:44:00,50.6,29.5,29.76,NW,321,8.0,13.0,44,0.00,,---,0.00,VWS V14.00,2013-03-27 15:44:00,
2013-03-27 11:49:00,50.9,30.3,29.76,SSE,148,3.0,13.0,45,0.00,,---,0.00,VWS V14.00,2013-03-27 15:49:00,
2013-03-27 11:54:00,51.1,29.4,29.76,NW,313,8.0,13.0,43,0.00,,---,0.00,VWS V14.00,2013-03-27 15:54:00,
2013-03-27 11:59:00,50.9,29.2,29.76,West,273,6.0,14.0,43,0.00,,---,0.00,VWS V14.00,2013-03-27 15:59:00,
2013-03-27 12:04:00,50.6,29.5,29.76,WSW,250,8.0,12.0,44,0.00,,---,0.00,VWS V14.00,2013-03-27 16:04:00,
2013-03-27 12:09:00,51.4,30.2,29.75,NW,315,7.0,12.0,44,0.00,,---,0.00,VWS V14.00,2013-03-27 16:09:00,
2013-03-27 12:14:00,51.5,29.8,29.75,NW,313,5.0,12.0,43,0.00,,---,0.00,VWS V14.00,2013-03-27 16:14:00,
2013-03-27 12:19:00,51.3,29.0,29.75,NNW,348,6.0,12.0,42,0.00,,---,0.00,VWS V14.00,2013-03-27 16:19:00,
2013-03-27 12:24:00,50.2,28.6,29.76,NW,304,7.0,14.0,43,0.00,,---,0.00,VWS V14.00,2013-03-27 16:24:00,
2013-03-27 12:29:00,51.1,29.4,29.75,WNW,300,11.0,20.0,43,0.00,,---,0.00,VWS V14.00,2013-03-27 16:29:00,
2013-03-27 12:35:00,51.0,29.3,29.75,NW,306,7.0,11.0,43,0.00,,---,0.00,VWS V14.00,2013-03-27 16:35:00,
2013-03-27 12:40:00,51.6,29.3,29.75,WNW,295,3.0,11.0,42,0.00,,---,0.00,VWS V14.00,2013-03-27 16:40:00,
2013-03-27 12:45:00,51.7,29.4,29.75,NW,305,6.0,18.0,42,0.00,,---,0.00,VWS V14.00,2013-03-27 16:45:00,
2013-03-27 12:50:00,51.3,30.1,29.75,WNW,298,19.0,19.0,44,0.00,,---,0.00,VWS V14.00,2013-03-27 16:50:00,
2013-03-27 12:55:00,52.4,28.8,29.75,North,360,4.0,19.0,40,0.00,,---,0.00,VWS V14.00,2013-03-27 16:55:00,
2013-03-27 13:00:00,52.1,29.1,29.75,West,277,10.0,19.0,41,0.00,,---,0.00,VWS V14.00,2013-03-27 17:00:00,
2013-03-27 13:05:00,51.8,28.3,29.75,WNW,290,5.0,12.0,40,0.00,,---,0.00,VWS V14.00,2013-03-27 17:05:00,
2013-03-27 13:10:00,51.0,27.5,29.75,West,276,6.0,13.0,40,0.00,,---,0.00,VWS V14.00,2013-03-27 17:10:00,
2013-03-27 13:15:00,50.8,28.0,29.75,NW,320,11.0,15.0,41,0.00,,---,0.00,VWS V14.00,2013-03-27 17:15:00,
2013-03-27 13:20:00,50.3,28.1,29.75,NW,322,8.0,15.0,42,0.00,,---,0.00,VWS V14.00,2013-03-27 17:20:00,
2013-03-27 13:25:00,50.5,28.9,29.74,WNW,301,9.0,15.0,43,0.00,,---,0.00,VWS V14.00,2013-03-27 17:25:00,
2013-03-27 13:30:00,51.5,28.0,29.74,NW,321,5.0,15.0,40,0.00,,---,0.00,VWS V14.00,2013-03-27 17:30:00,
2013-03-27 13:35:00,52.0,29.0,29.74,ENE,70,4.0,10.0,41,0.00,,---,0.00,VWS V14.00,2013-03-27 17:35:00,
2013-03-27 13:40:00,52.6,27.7,29.74,NW,316,7.0,14.0,38,0.00,,---,0.00,VWS V14.00,2013-03-27 17:40:00,
2013-03-27 13:45:00,52.7,27.2,29.74,West,272,0.0,14.0,37,0.00,,---,0.00,VWS V14.00,2013-03-27 17:45:00,
2013-03-27 13:50:00,51.9,27.7,29.74,WNW,294,8.0,15.0,39,0.00,,---,0.00,VWS V14.00,2013-03-27 17:50:00,
2013-03-27 13:55:00,51.1,26.4,29.74,West,273,4.0,15.0,38,0.00,,---,0.00,VWS V14.00,2013-03-27 17:55:00,
2013-03-27 13:59:00,50.7,26.7,29.74,West,265,4.0,15.0,39,0.00,,---,0.00,VWS V14.00,2013-03-27 17:59:00,
2013-03-27 14:04:00,50.8,26.8,29.74,NW,312,10.0,13.0,39,0.00,,---,0.00,VWS V14.00,2013-03-27 18:04:00,
2013-03-27 14:09:00,50.8,26.8,29.74,NW,311,7.0,14.0,39,0.00,,---,0.00,VWS V14.00,2013-03-27 18:09:00,
2013-03-27 14:14:00,50.8,26.8,29.74,NW,324,8.0,14.0,39,0.00,,---,0.00,VWS V14.00,2013-03-27 18:14:00,
2013-03-27 14:19:00,50.7,26.0,29.74,WNW,285,8.0,14.0,38,0.00,,---,0.00,VWS V14.00,2013-03-27 18:19:00,
2013-03-27 14:24:00,50.8,26.8,29.74,NW,308,8.0,14.0,39,0.00,,---,0.00,VWS V14.00,2013-03-27 18:24:00,
2013-03-27 14:29:00,50.8,27.4,29.74,WSW,252,5.0,14.0,40,0.00,,---,0.00,VWS V14.00,2013-03-27 18:29:00,
2013-03-27 14:34:00,51.1,27.0,29.74,West,275,6.0,12.0,39,0.00,,---,0.00,VWS V14.00,2013-03-27 18:34:00,
2013-03-27 14:39:00,51.4,27.3,29.74,NW,314,6.0,12.0,39,0.00,,---,0.00,VWS V14.00,2013-03-27 18:39:00,
2013-03-27 14:44:00,51.4,26.7,29.74,WNW,293,4.0,12.0,38,0.00,,---,0.00,VWS V14.00,2013-03-27 18:44:00,
2013-03-27 14:49:00,51.6,28.7,29.74,NW,313,3.0,12.0,41,0.00,,---,0.00,VWS V14.00,2013-03-27 18:49:00,
2013-03-27 14:54:00,51.9,27.1,29.73,NW,323,5.0,12.0,38,0.00,,---,0.00,VWS V14.00,2013-03-27 18:54:00,
2013-03-27 14:59:00,52.5,27.6,29.73,ENE,73,2.0,14.0,38,0.00,,---,0.00,VWS V14.00,2013-03-27 18:59:00,
2013-03-27 15:04:00,52.5,27.0,29.74,West,271,7.0,12.0,37,0.00,,---,0.00,VWS V14.00,2013-03-27 19:04:00,
2013-03-27 15:09:00,51.9,27.1,29.74,West,269,10.0,14.0,38,0.00,,---,0.00,VWS V14.00,2013-03-27 19:09:00,
2013-03-27 15:14:00,51.5,27.4,29.74,NNW,348,6.0,14.0,39,0.00,,---,0.00,VWS V14.00,2013-03-27 19:14:00,
2013-03-27 15:19:00,51.5,27.4,29.73,North,360,5.0,14.0,39,0.00,,---,0.00,VWS V14.00,2013-03-27 19:19:00,
2013-03-27 15:24:00,51.4,27.3,29.73,NNE,18,3.0,14.0,39,0.00,,---,0.00,VWS V14.00,2013-03-27 19:24:00,
2013-03-27 15:29:00,51.8,27.6,29.73,WNW,292,4.0,14.0,39,0.00,,---,0.00,VWS V14.00,2013-03-27 19:29:00,
2013-03-27 15:34:00,52.3,26.8,29.74,NW,316,2.0,7.0,37,0.00,,---,0.00,VWS V14.00,2013-03-27 19:34:00,
2013-03-27 15:39:00,52.4,27.6,29.73,WNW,288,3.0,11.0,38,0.00,,---,0.00,VWS V14.00,2013-03-27 19:39:00,
2013-03-27 15:44:00,52.1,26.6,29.74,WNW,296,9.0,15.0,37,0.00,,---,0.00,VWS V14.00,2013-03-27 19:44:00,
2013-03-27 15:49:00,51.7,26.9,29.74,NW,307,3.0,15.0,38,0.00,,---,0.00,VWS V14.00,2013-03-27 19:49:00,
2013-03-27 15:54:00,51.7,26.3,29.74,West,269,7.0,16.0,37,0.00,,---,0.00,VWS V14.00,2013-03-27 19:54:00,
2013-03-27 15:59:00,51.6,27.5,29.74,North,5,3.0,16.0,39,0.00,,---,0.00,VWS V14.00,2013-03-27 19:59:00,
2013-03-27 16:04:00,51.7,27.6,29.74,NNW,330,9.0,15.0,39,0.00,,---,0.00,VWS V14.00,2013-03-27 20:04:00,
2013-03-27 16:09:00,51.5,27.4,29.74,NW,305,8.0,15.0,39,0.00,,---,0.00,VWS V14.00,2013-03-27 20:09:00,
2013-03-27 16:14:00,51.5,27.4,29.74,NNW,336,14.0,19.0,39,0.00,,---,0.00,VWS V14.00,2013-03-27 20:14:00,
2013-03-27 16:19:00,51.3,27.2,29.74,NE,53,5.0,19.0,39,0.00,,---,0.00,VWS V14.00,2013-03-27 20:19:00,
2013-03-27 16:24:00,51.3,27.8,29.74,NNW,329,7.0,20.0,40,0.00,,---,0.00,VWS V14.00,2013-03-27 20:24:00,
2013-03-27 16:29:00,51.2,27.7,29.75,NNW,333,7.0,21.0,40,0.00,,---,0.00,VWS V14.00,2013-03-27 20:29:00,
2013-03-27 16:34:00,51.5,28.0,29.75,North,360,11.0,11.0,40,0.00,,---,0.00,VWS V14.00,2013-03-27 20:34:00,
2013-03-27 16:39:00,51.7,28.2,29.75,WNW,290,18.0,18.0,40,0.00,,---,0.00,VWS V14.00,2013-03-27 20:39:00,
2013-03-27 16:44:00,51.3,27.8,29.75,West,275,4.0,18.0,40,0.00,,---,0.00,VWS V14.00,2013-03-27 20:44:00,
2013-03-27 16:49:00,51.3,28.4,29.75,NW,304,15.0,20.0,41,0.00,,---,0.00,VWS V14.00,2013-03-27 20:49:00,
2013-03-27 16:54:00,51.0,28.1,29.75,NNE,13,11.0,20.0,41,0.00,,---,0.00,VWS V14.00,2013-03-27 20:54:00,
2013-03-27 16:59:00,50.8,28.0,29.75,NW,313,13.0,20.0,41,0.00,,---,0.00,VWS V14.00,2013-03-27 20:59:00,
2013-03-27 17:04:00,50.7,28.5,29.75,WNW,296,8.0,14.0,42,0.00,,---,0.00,VWS V14.00,2013-03-27 21:04:00,
2013-03-27 17:09:00,50.7,28.5,29.75,NNW,327,3.0,14.0,42,0.00,,---,0.00,VWS V14.00,2013-03-27 21:09:00,
2013-03-27 17:14:00,50.7,27.9,29.75,West,271,5.0,14.0,41,0.00,,---,0.00,VWS V14.00,2013-03-27 21:14:00,
2013-03-27 17:19:00,50.7,29.0,29.75,NW,325,6.0,16.0,43,0.00,,---,0.00,VWS V14.00,2013-03-27 21:19:00,
2013-03-27 17:24:00,50.6,28.4,29.75,NW,323,4.0,16.0,42,0.00,,---,0.00,VWS V14.00,2013-03-27 21:24:00,
2013-03-27 17:29:00,50.6,28.4,29.75,WNW,282,10.0,16.0,42,0.00,,---,0.00,VWS V14.00,2013-03-27 21:29:00,
2013-03-27 17:34:00,50.5,28.3,29.76,WNW,288,6.0,14.0,42,0.00,,---,0.00,VWS V14.00,2013-03-27 21:34:00,
2013-03-27 17:39:00,50.4,28.8,29.76,NNW,331,6.0,14.0,43,0.00,,---,0.00,VWS V14.00,2013-03-27 21:39:00,
2013-03-27 17:44:00,50.1,29.6,29.76,NW,321,11.0,14.0,45,0.00,,---,0.00,VWS V14.00,2013-03-27 21:44:00,
2013-03-27 17:49:00,49.8,28.8,29.77,North,355,7.0,15.0,44,0.00,,---,0.00,VWS V14.00,2013-03-27 21:49:00,
2013-03-27 17:54:00,49.6,29.1,29.77,NNW,339,5.0,15.0,45,0.00,,---,0.00,VWS V14.00,2013-03-27 21:54:00,
2013-03-27 17:59:00,49.5,28.5,29.77,NW,304,9.0,15.0,44,0.00,,---,0.00,VWS V14.00,2013-03-27 21:59:00,
2013-03-27 18:04:00,49.4,28.4,29.77,WNW,291,2.0,11.0,44,0.00,,---,0.00,VWS V14.00,2013-03-27 22:04:00,
2013-03-27 18:09:00,49.2,28.8,29.77,WNW,301,3.0,11.0,45,0.00,,---,0.00,VWS V14.00,2013-03-27 22:09:00,
2013-03-27 18:14:00,49.2,29.3,29.77,WNW,282,5.0,11.0,46,0.00,,---,0.00,VWS V14.00,2013-03-27 22:14:00,
2013-03-27 18:19:00,49.1,29.2,29.77,WNW,293,1.0,11.0,46,0.00,,---,0.00,VWS V14.00,2013-03-27 22:19:00,
2013-03-27 18:24:00,49.0,28.6,29.77,NW,311,12.0,12.0,45,0.00,,---,0.00,VWS V14.00,2013-03-27 22:24:00,
2013-03-27 18:29:00,49.0,28.6,29.77,NNW,331,3.0,14.0,45,0.00,,---,0.00,VWS V14.00,2013-03-27 22:29:00,
2013-03-27 18:34:00,48.9,28.5,29.78,West,275,5.0,11.0,45,0.00,,---,0.00,VWS V14.00,2013-03-27 22:34:00,
2013-03-27 18:39:00,48.9,28.5,29.78,NW,306,5.0,11.0,45,0.00,,---,0.00,VWS V14.00,2013-03-27 22:39:00,
2013-03-27 18:44:00,48.8,28.4,29.78,NW,306,4.0,11.0,45,0.00,,---,0.00,VWS V14.00,2013-03-27 22:44:00,
2013-03-27 18:49:00,48.7,28.3,29.78,NW,308,11.0,12.0,45,0.00,,---,0.00,VWS V14.00,2013-03-27 22:49:00,
2013-03-27 18:54:00,48.7,28.3,29.78,WNW,302,9.0,13.0,45,0.00,,---,0.00,VWS V14.00,2013-03-27 22:54:00,
2013-03-27 18:59:00,48.6,27.7,29.78,NNW,330,4.0,13.0,44,0.00,,---,0.00,VWS V14.00,2013-03-27 22:59:00,
2013-03-27 19:04:00,48.3,27.4,29.78,West,273,5.0,10.0,44,0.00,,---,0.00,VWS V14.00,2013-03-27 23:04:00,
2013-03-27 19:09:00,48.1,27.8,29.79,WNW,301,7.0,10.0,45,0.00,,---,0.00,VWS V14.00,2013-03-27 23:09:00,
2013-03-27 19:14:00,47.8,27.5,29.79,NW,304,8.0,16.0,45,0.00,,---,0.00,VWS V14.00,2013-03-27 23:14:00,
2013-03-27 19:19:00,47.6,27.3,29.79,WNW,288,4.0,16.0,45,0.00,,---,0.00,VWS V14.00,2013-03-27 23:19:00,
2013-03-27 19:24:00,47.5,27.2,29.79,NW,315,3.0,16.0,45,0.00,,---,0.00,VWS V14.00,2013-03-27 23:24:00,
2013-03-27 19:29:00,47.4,27.7,29.79,WNW,293,3.0,16.0,46,0.00,,---,0.00,VWS V14.00,2013-03-27 23:29:00,
2013-03-27 19:34:00,47.4,27.7,29.79,WNW,297,2.0,6.0,46,0.00,,---,0.00,VWS V14.00,2013-03-27 23:34:00,
2013-03-27 19:39:00,47.3,27.6,29.80,WNW,293,2.0,6.0,46,0.00,,---,0.00,VWS V14.00,2013-03-27 23:39:00,
2013-03-27 19:44:00,47.1,27.4,29.80,NW,311,2.0,6.0,46,0.00,,---,0.00,VWS V14.00,2013-03-27 23:44:00,
2013-03-27 19:49:00,47.0,27.8,29.80,NW,308,3.0,6.0,47,0.00,,---,0.00,VWS V14.00,2013-03-27 23:49:00,
2013-03-27 19:54:00,46.9,27.7,29.80,WNW,290,4.0,8.0,47,0.00,,---,0.00,VWS V14.00,2013-03-27 23:54:00,
2013-03-27 19:59:00,46.8,28.2,29.80,WNW,286,5.0,8.0,48,0.00,,---,0.00,VWS V14.00,2013-03-27 23:59:00,
2013-03-27 20:04:00,46.7,28.1,29.80,NW,315,4.0,6.0,48,0.00,,---,0.00,VWS V14.00,2013-03-28 00:04:00,
2013-03-27 20:09:00,46.5,28.9,29.80,WNW,290,3.0,13.0,50,0.00,,---,0.00,VWS V14.00,2013-03-28 00:09:00,
2013-03-27 20:14:00,46.2,28.6,29.80,WNW,298,2.0,13.0,50,0.00,,---,0.00,VWS V14.00,2013-03-28 00:14:00,
2013-03-27 20:19:00,45.9,29.3,29.81,WNW,289,5.0,13.0,52,0.00,,---,0.00,VWS V14.00,2013-03-28 00:19:00,
2013-03-27 20:24:00,45.6,29.5,29.81,WNW,289,6.0,13.0,53,0.00,,---,0.00,VWS V14.00,2013-03-28 00:24:00,
2013-03-27 20:29:00,45.4,30.2,29.81,WNW,298,4.0,13.0,55,0.00,,---,0.00,VWS V14.00,2013-03-28 00:29:00,
2013-03-27 20:34:00,45.2,30.5,29.81,NW,309,4.0,7.0,56,0.00,,---,0.00,VWS V14.00,2013-03-28 00:34:00,
2013-03-27 20:39:00,45.0,30.3,29.81,WNW,298,9.0,9.0,56,0.00,,---,0.00,VWS V14.00,2013-03-28 00:39:00,
2013-03-27 20:44:00,44.9,30.6,29.82,WNW,286,4.0,9.0,57,0.00,,---,0.00,VWS V14.00,2013-03-28 00:44:00,
2013-03-27 20:49:00,44.7,30.9,29.82,WNW,297,5.0,9.0,58,0.00,,---,0.00,VWS V14.00,2013-03-28 00:49:00,
2013-03-27 20:54:00,44.4,30.6,29.82,WNW,294,6.0,9.0,58,0.00,,---,0.00,VWS V14.00,2013-03-28 00:54:00,
2013-03-27 20:59:00,44.2,30.8,29.82,WNW,300,3.0,9.0,59,0.00,,---,0.00,VWS V14.00,2013-03-28 00:59:00,
2013-03-27 21:04:00,44.1,30.7,29.83,West,277,2.0,6.0,59,0.00,,---,0.00,VWS V14.00,2013-03-28 01:04:00,
2013-03-27 21:09:00,44.0,31.0,29.83,NW,313,4.0,8.0,60,0.00,,---,0.00,VWS V14.00,2013-03-28 01:09:00,
2013-03-27 21:14:00,44.0,31.0,29.83,West,281,4.0,8.0,60,0.00,,---,0.00,VWS V14.00,2013-03-28 01:14:00,
2013-03-27 21:19:00,43.8,30.8,29.83,WNW,302,6.0,8.0,60,0.00,,---,0.00,VWS V14.00,2013-03-28 01:19:00,
2013-03-27 21:24:00,43.8,31.2,29.83,NW,324,5.0,8.0,61,0.00,,---,0.00,VWS V14.00,2013-03-28 01:24:00,
2013-03-27 21:29:00,43.8,31.2,29.83,NW,307,6.0,11.0,61,0.00,,---,0.00,VWS V14.00,2013-03-28 01:29:00,
2013-03-27 21:34:00,43.9,31.3,29.83,West,263,6.0,6.0,61,0.00,,---,0.00,VWS V14.00,2013-03-28 01:34:00,
2013-03-27 21:39:00,43.8,31.2,29.83,WNW,295,4.0,10.0,61,0.00,,---,0.00,VWS V14.00,2013-03-28 01:39:00,
2013-03-27 21:44:00,43.8,31.2,29.83,WNW,286,4.0,10.0,61,0.00,,---,0.00,VWS V14.00,2013-03-28 01:44:00,
2013-03-27 21:49:00,43.8,31.2,29.83,NW,321,3.0,10.0,61,0.00,,---,0.00,VWS V14.00,2013-03-28 01:49:00,
2013-03-27 21:54:00,43.7,31.5,29.83,NW,304,3.0,10.0,62,0.00,,---,0.00,VWS V14.00,2013-03-28 01:54:00,
2013-03-27 21:59:00,43.6,31.5,29.84,WNW,291,3.0,10.0,62,0.00,,---,0.00,VWS V14.00,2013-03-28 01:59:00,
2013-03-27 22:04:00,43.4,31.3,29.84,WNW,291,2.0,7.0,62,0.00,,---,0.00,VWS V14.00,2013-03-28 02:04:00,
2013-03-27 22:09:00,43.3,31.6,29.84,NNW,330,6.0,9.0,63,0.00,,---,0.00,VWS V14.00,2013-03-28 02:09:00,
2013-03-27 22:14:00,43.1,31.4,29.84,West,278,4.0,9.0,63,0.00,,---,0.00,VWS V14.00,2013-03-28 02:14:00,
2013-03-27 22:19:00,42.9,31.6,29.84,WNW,298,3.0,9.0,64,0.00,,---,0.00,VWS V14.00,2013-03-28 02:19:00,
2013-03-27 22:24:00,42.8,31.5,29.84,NW,306,4.0,9.0,64,0.00,,---,0.00,VWS V14.00,2013-03-28 02:24:00,
2013-03-27 22:29:00,42.7,31.4,29.84,WNW,292,4.0,9.0,64,0.00,,---,0.00,VWS V14.00,2013-03-28 02:29:00,
2013-03-27 22:34:00,42.6,31.3,29.84,NW,326,3.0,5.0,64,0.00,,---,0.00,VWS V14.00,2013-03-28 02:34:00,
2013-03-27 22:39:00,42.4,31.5,29.84,North,11,3.0,6.0,65,0.00,,---,0.00,VWS V14.00,2013-03-28 02:39:00,
2013-03-27 22:44:00,42.3,31.4,29.84,NNW,338,4.0,6.0,65,0.00,,---,0.00,VWS V14.00,2013-03-28 02:44:00,
2013-03-27 22:49:00,42.4,31.5,29.84,WNW,294,1.0,6.0,65,0.00,,---,0.00,VWS V14.00,2013-03-28 02:49:00,
2013-03-27 22:54:00,42.3,31.4,29.84,NW,323,2.0,6.0,65,0.00,,---,0.00,VWS V14.00,2013-03-28 02:54:00,
2013-03-27 22:59:00,42.2,31.7,29.84,NNE,12,2.0,6.0,66,0.00,,---,0.00,VWS V14.00,2013-03-28 02:59:00,
2013-03-27 23:04:00,42.0,31.5,29.85,NW,312,3.0,4.0,66,0.00,,---,0.00,VWS V14.00,2013-03-28 03:04:00,
2013-03-27 23:09:00,42.0,31.5,29.85,WNW,292,0.0,4.0,66,0.00,,---,0.00,VWS V14.00,2013-03-28 03:09:00,
2013-03-27 23:14:00,42.1,31.6,29.85,West,269,4.0,8.0,66,0.00,,---,0.00,VWS V14.00,2013-03-28 03:14:00,
2013-03-27 23:19:00,42.4,31.9,29.85,NW,309,4.0,13.0,66,0.00,,---,0.00,VWS V14.00,2013-03-28 03:19:00,
2013-03-27 23:24:00,42.7,31.8,29.85,East,85,5.0,15.0,65,0.00,,---,0.00,VWS V14.00,2013-03-28 03:24:00,
2013-03-27 23:29:00,42.9,32.0,29.85,North,355,4.0,15.0,65,0.00,,---,0.00,VWS V14.00,2013-03-28 03:29:00,
2013-03-27 23:34:00,42.9,32.0,29.85,NW,320,3.0,7.0,65,0.00,,---,0.00,VWS V14.00,2013-03-28 03:34:00,
2013-03-27 23:39:00,42.9,32.0,29.85,NW,313,5.0,7.0,65,0.00,,---,0.00,VWS V14.00,2013-03-28 03:39:00,
2013-03-27 23:44:00,42.9,32.0,29.84,NNW,333,6.0,8.0,65,0.00,,---,0.00,VWS V14.00,2013-03-28 03:44:00,
2013-03-27 23:49:00,42.9,32.0,29.84,NW,307,1.0,9.0,65,0.00,,---,0.00,VWS V14.00,2013-03-28 03:49:00,
2013-03-27 23:54:00,42.8,32.2,29.84,NNW,327,5.0,9.0,66,0.00,,---,0.00,VWS V14.00,2013-03-28 03:54:00,
2013-03-27 23:59:00,42.7,32.2,29.84,NNW,341,9.0,14.0,66,0.00,,---,0.00,VWS V14.00,2013-03-28 03:59:00,